Location: Allos
(44.2333°N, 6.6333°E)
Time: 19:21:46
(UTC+00:00)

Cosmos 2228 Rocket - Pass Details

Date: 25 April 2021
Orbit: 617 x 652 km, 82.5° (Epoch: 05 May)

Event Time Altitude Azimuth Distance (km) Brightness Sun altitude
Exits shadow 22:24:10 12° 50° (NE) 1,873 5.7 -30.3°
Drops below altitude 10° 22:24:39 10° 45° (NE) 1,990 5.9 -30.3°
Sets 22:27:31 0° 26° (NNE) 2,904 7.1 -30.5°
